Location: LDNL
(36.4545°S, 141.6685°E)
Time: 11:16:30
(UTC+10:00)

Vanguard 1 - Pass Details

Date: 11 August 2022
Orbit: 649 x 3832 km, 34.2° (Epoch: 30 September)

Event Time Altitude Azimuth Distance (km) Brightness Sun altitude
Rises 19:58:44 0° 268° (W) 3,396 14.2 -24.9°
Reaches altitude 10° 20:01:27 10° 271° (W) 2,255 13.0 -25.5°
Enters shadow 20:05:57 61° 331° (NNW) 746 9.4 -26.4°
